User: anonymous   Login
Location: Belfast
(54.5830°N, 5.9330°W)
Time: 23:48:38
(UTC+00:00)
Language:

Coronas F rocket - Orbit

View from above orbital plane
View from above orbital plane
View from above satellite
View from above satellite

Ground track
Ground track

The orbit data is extracted from the following two-line orbital elements,

1 26874U 01032B   16037.91586872 +.00022033 +00000-0 +15202-3 0  9999
2 26874 082.4604 064.9703 0007365 357.6872 002.4357 15.74374972814947
Epoch (UTC): 06 February 2016 21:58:51
Eccentricity: 0.0007365
inclination: 82.4604°
perigee height: 341 km
apogee height: 351 km
right ascension of ascending node: 64.9703°
argument of perigee: 357.6872°
revolutions per day: 15.74374972
mean anomaly at epoch: 2.4357°
orbit number at epoch: 81494

The dashed part of the orbit path shows where the satellite is in the earth's shadow,  

DLR